Weather Roundup
Issued by NWS Corpus Christi, TX

Home | Current Version | Previous Version | Text Only | Print | Product List | Glossary On
Versions: 1 2 3 4 5 6 7 8 9 10 11 12 13 14 15 16 17 18 19 20 21 22 23 24 25 26 27 28 29 30 31 32 33 34 35 36 37 38 39 40 41 42 43 44 45 46 47 48 49 50
000
ASUS44 KCRP 061010
HRRCRP

SOUTH TEXAS REGIONAL WEATHER ROUNDUP
NATIONAL WEATHER SERVICE CORPUS CHRISTI TX
500 AM CDT MON JUL 06 2015


TXZ229>244-061100-
...CORPUS CHRISTI AREA OBSERVATIONS...

CITY           SKY/WX    TMP DP  RH WIND       PRES   REMARKS
CORPUS CHRISTI PTCLDY    79  76  90 S12       30.00S
NAS CORPUS CHR CLOUDY   N/A N/A N/A S13       29.99F
ROCKPORT       MOCLDY    82  77  84 S8        30.00S HX  90
KINGSVILLE NAS PTCLDY    78  78 100 SE7       29.99S FOG
ALICE          CLOUDY    77  75  93 SE6       29.99S FOG
FALFURRIAS     CLOUDY    77  75  92 SE6       29.98S
$$

...VICTORIA AREA OBSERVATIONS...

CITY           SKY/WX    TMP DP  RH WIND       PRES   REMARKS
VICTORIA       CLOUDY    78  78 100 S10       30.03S
BEEVILLE       MOCLDY   N/A N/A N/A SE7       30.01R HAZE
PLEASANTON     MOCLDY    76  73  91 SE8       29.99F
SAN ANTONIO    MOCLDY    78  72  81 S16       30.01S
$$

...LAREDO AREA OBSERVATIONS...

CITY           SKY/WX    TMP DP  RH WIND       PRES   REMARKS
LAREDO         CLEAR     78  72  82 SE14      29.96S
COTULLA        LGT RAIN  77  73  87 SE12      29.96S
DEL RIO        PTCLDY    78  72  81 SE7       29.94R
MCALLEN        CLOUDY    82  75  79 S14       29.98S
HEBBRONVILLE     N/A     75  73  95 SE8       29.99S FOG
$$

...OTHER TEXAS OBSERVATIONS...

CITY           SKY/WX    TMP DP  RH WIND       PRES   REMARKS
BROWNSVILLE    CLEAR     78  76  93 S10       29.98F
HOUSTON        MOCLDY    80  77  90 S7        30.04R
COL. STATION   CLOUDY    78  76  93 S8        30.03R
AUSTIN         CLOUDY    77  75  93 S12       30.01S
WACO           CLOUDY    78  73  84 S17       30.00R
FORT WORTH     MOCLDY    80  73  79 S15       29.97R
WICHITA FALLS  PTCLDY    78  70  76 S14       29.92S
LUBBOCK        PTCLDY    74  64  71 S15       29.97F
EL PASO        CLOUDY    76  59  55 SW6       30.03S
$$

...MARINE OBSERVATIONS...

STATION/POSITION TIME  SKY/WX   TEMP    WIND        PRES    VSBY  WAVE   SWELL
                                AIR SEA DIR/SP/G                  HT/PER HT/PER
                 (UTC)          (F)     (DEG/KT/KT) (MB)    (MI)  (FT/S) (FT/S)
PORT ARANSAS     0900            81 81  150/ 12/ 13 1016.6F
BUOY 90 E PORT A NOT AVBL
BUOY 45 SE BAFFI 0950            82 82  160/ 16/ 19 1015.4S         4/ 6   2/11
BUOY 200 E PT IS 0950            84 84  140/ 14/ 17 1017.6S         3/ 6   2/ 7
BUOY 15 E GALVES 0950            84 84  170/ 16/ 17 1016.9R         3/ 6
$$


USA.gov is the U.S. government's official web portal to all federal, state and local government web resources and services.